NSS-11

Last updated on Mon Sep 07 2026 00:02:56 GMT+0000 (Coordinated Universal Time)

1 26554U 00059A 26249.61830023 .00000008 00000+0 00000+0 0 9998 2 26554 2.3303 80.3321 0003090 102.2947 201.6742 1.00271609 42104
UTC large
Height (km)
Speed (km/s)
/
Latitude / Longitude
Inclination (degrees)
Orbital Period (minutes)
Azimuth
Elevation
Range (km)
Doppler Factor

Next 0 passes for location: London (51.5072 / 0.1276)

No passes found over London.
NSS-11